Weather observations for the past three days for
Gary Regional Airport
Imperial (Metric)
Date Time (cdt) Wind (mph) Vis. (mi.) Weather Sky Cond. Temperature (ºF) Relative Humidity Wind Chill (°F) Heat Index (°F) Pressure Precipitation (in)
Air Dwpt 6 hour altimeter (in) sea level (mb) 1 hr 3 hr 6 hr
Max. Min.
22 20:45 SW 14 10.00 Overcast OVC080 86 64.4 49% 87 29.72 0.0
22 19:45 SW 14 G 36 10.00 Mostly Cloudy BKN120 87.8 66.2 49% 90 29.75 0.0
22 18:45 SW 12 G 23 10.00 Fair CLR 89.6 66.2 46% 92 29.76 0.0
22 17:45 SW 23 G 37 10.00 A Few Clouds and Breezy FEW120 91.4 66.2 44% 94 29.8 0.0
22 16:45 SW 18 10.00 A Few Clouds FEW065 91.4 66.2 44% 94 29.81 0.0
22 15:45 SW 15 G 38 10.00 Mostly Cloudy BKN060 89.6 68 49% 93 29.83 0.0
22 14:45 SW 18 G 33 10.00 Partly Cloudy SCT060 91.4 68 46% 96 29.85 0.0
22 13:45 SW 17 G 33 10.00 Partly Cloudy SCT055 89.6 68 49% 93 29.87 0.0
22 12:45 SW 17 G 38 10.00 Partly Cloudy SCT055 89.6 68 49% 93 29.88 0.0
22 11:45 W 25 G 38 10.00 Partly Cloudy and Breezy SCT050 89.6 69.8 52% 95 29.91 0.0
22 10:45 W 22 G 35 10.00 A Few Clouds and Breezy FEW043 FEW050 86 71.6 62% 92 29.93 0.0
22 09:45 W 32 G 30 10.00 Fair and Windy CLR 86 75.2 70% 95 29.95 0.0
22 08:45 W 17 G 29 10.00 Fair CLR 84.2 75.2 74% 92 29.98 0.0
22 07:45 SW 7 G 16 10.00 Fair CLR 80.6 73.4 79% 85 29.99 0.0
22 06:45 SW 6 10.00 Fair CLR 78.8 73.4 84% 82 30 0.0
22 05:45 Calm 10.00 Fair CLR 71.6 71.6 100% 30.01 0.0
22 04:45 Calm 8.00 Mostly Cloudy FEW060 BKN085 68 68 100% 30.02 0.0
22 04:15 NE 5 10.00 Partly Cloudy SCT080 69.8 69.8 100% 30.02 0.0
22 03:55 Calm 8.00 Mostly Cloudy BKN085 69.8 69.8 100% 30.03 0.0
22 03:35 Calm 8.00 Mostly Cloudy BKN080 69.8 69.8 100% 30.03 0.0
22 03:10 Calm 8.00 Mostly Cloudy BKN080 69.8 69.8 100% 30.03 0.0
22 02:55 Calm 6.00 Fog/Mist BKN085 69.8 69.8 100% 30.03 0.0
22 02:15 Calm 8.00 Fair CLR 69.8 69.8 100% 30.04 0.0
22 01:55 Calm 9.00 A Few Clouds FEW090 69.8 69.8 100% 30.05 0.0
22 01:35 Calm 10.00 Fair CLR 71.6 71.6 100% 30.04 0.0
22 01:15 Calm 10.00 Fair CLR 69.8 69.8 100% 30.04 0.0
22 00:55 Calm 10.00 Fair CLR 71.6 71.6 100% 30.05 0.0
22 00:35 Calm 10.00 Fair CLR 71.6 71.6 100% 30.05 0.0
22 00:15 Calm 10.00 Fair CLR 71.6 71.6 100% 30.05 0.0
21 23:55 Calm 10.00 Fair CLR 73.4 73.4 100% 30.06 0.0
21 23:35 Calm 10.00 Fair CLR 73.4 73.4 100% 30.06 0.0
21 23:15 Calm 10.00 A Few Clouds FEW065 73.4 73.4 100% 30.06 0.0
21 22:55 Calm 10.00 Partly Cloudy SCT060 73.4 73.4 100% 30.05 0.0
21 22:35 Calm 10.00 A Few Clouds FEW060 73.4 73.4 100% 30.06 0.0
21 22:15 Calm 10.00 Fair CLR 75.2 75.2 100% 73 30.06 0.0
21 21:45 Calm 10.00 Partly Cloudy SCT060 80.6 69.8 70% 84 29.76 0.0
21 20:45 SW 5 10.00 Partly Cloudy SCT060 84.2 68 58% 87 30.05 0.0
21 19:45 SW 5 10.00 Fair CLR 87.8 66.2 49% 90 30.06 0.0
21 18:45 S 8 G 15 10.00 Fair CLR 91.4 66.2 44% 94 30.06 0.0
21 17:45 SW 8 G 15 10.00 Fair CLR 93.2 66.2 41% 96 30.07 0.0
21 16:45 SW 8 G 15 10.00 Fair CLR 93.2 66.2 41% 96 30.07 0.0
21 15:45 SW 9 G 15 10.00 Fair CLR 93.2 66.2 41% 96 30.1 0.0
21 14:45 W 12 G 13 10.00 Mostly Cloudy BKN060 93.2 68 44% 98 30.12 0.0
21 13:45 NE 8 10.00 Mostly Cloudy BKN060 86 77 75% 97 30.14 0.0
21 12:45 NE 3 10.00 Partly Cloudy SCT060 SCT070 82.4 80.6 94% 94 30.18 0.0
21 11:45 NE 3 10.00 Fair CLR 80.6 78.8 94% 88 30.2 0.0
21 10:45 Calm 10.00 Fair CLR 78.8 78.8 100% 83 30.21 0.0
21 09:45 Calm 10.00 Fair CLR 78.8 78.8 100% 83 30.22 0.0
21 08:45 Calm 7.00 Fair CLR 73.4 73.4 100% 30.24 0.0
21 07:45 Calm 2.00 Fog/Mist OVC004 68 68 100% 30.25 0.0
21 06:45 Calm 0.50 Fog OVC002 66.2 66.2 100% 30.23 0.0
21 05:45 Calm 0.25 Fog OVC002 66.2 66.2 100% 30.22 0.0
21 04:15 Calm 0.15 Fog OVC002 66.2 66.2 100% 30.21 0.0
21 03:55 Calm 0.15 Fog OVC002 66.2 66.2 100% 30.21 0.0
21 03:35 Calm 0.15 Fog OVC002 66.2 66.2 100% 30.22 0.0
21 03:15 Calm 0.15 Fog OVC002 66.2 66.2 100% 30.22 0.0
21 02:55 Calm 1.00 Fog/Mist OVC003 66.2 66.2 100% 30.23 0.0
21 02:35 Calm 1.75 Fog/Mist OVC003 68 68 100% 30.23 0.0
21 02:15 Calm 2.00 Fog/Mist OVC003 66.2 66.2 100% 30.23 0.0
21 01:55 Calm 3.00 Fog/Mist OVC003 66.2 66.2 100% 30.23 0.0
21 01:35 Vrbl 3 1.25 Fog/Mist OVC002 66.2 66.2 100% 30.23 0.0
21 00:55 NE 3 0.50 Fog/Mist OVC002 66.2 66.2 100% 30.24 0.0
21 00:35 Calm 0.50 Fog/Mist OVC002 66.2 66.2 100% 30.24 0.0
21 00:15 N 6 4.00 Fog/Mist OVC003 66.2 66.2 100% 30.24 0.0
20 23:55 NE 5 2.00 Fog/Mist OVC003 66.2 66.2 100% 30.25 0.0
20 23:35 N 6 1.75 Fog/Mist OVC003 66.2 66.2 100% 30.25 0.0
20 23:15 N 7 2.00 Fog/Mist OVC003 66.2 66.2 100% 30.26 0.0
20 22:55 N 9 1.75 Fog/Mist OVC002 66.2 66.2 100% 30.26 0.0
20 22:35 N 9 0.50 Fog OVC002 66.2 66.2 100% 30.27 0.0
20 22:15 N 7 0.25 Fog OVC002 66.2 66.2 100% 30.26 0.0
20 21:45 NE 8 2.00 Fog/Mist OVC002 68 68 100% 30.26 0.0
20 20:45 NE 8 5.00 Fog/Mist OVC003 66.2 66.2 100% 30.25 0.0
20 19:45 N 12 5.00 Fog/Mist OVC003 66.2 66.2 100% 30.25 0.0
20 18:45 N 12 2.00 Fog/Mist OVC003 66.2 66.2 100% 30.25 0.0
20 17:45 NE 7 6.00 Fog/Mist OVC004 69.8 69.8 100% 30.25 0.0
20 16:45 NE 7 6.00 Fog/Mist OVC004 69.8 69.8 100% 30.25 0.0
20 15:45 NE 9 10.00 A Few Clouds FEW100 71.6 71.6 100% 30.25 0.0
20 14:45 NE 10 10.00 Fair CLR 73.4 73.4 100% 30.27 0.0
20 13:45 NE 9 10.00 Fair CLR 73.4 73.4 100% 30.28 0.0
20 12:45 N 9 10.00 Fair CLR 73.4 73.4 100% 30.29 0.0
20 11:45 N 7 7.00 Partly Cloudy SCT090 71.6 71.6 100% 30.3 0.0
20 10:45 N 8 4.00 Fog/Mist BKN006 71.6 71.6 100% 30.31 0.0
20 09:45 N 8 10.00 Mostly Cloudy FEW070 FEW080 BKN090 73.4 73.4 100% 30.3 0.0
20 08:45 N 5 10.00 Mostly Cloudy FEW065 SCT075 BKN085 71.6 71.6 100% 30.29 0.0
20 07:45 N 8 10.00 Partly Cloudy SCT060 SCT070 69.8 69.8 100% 30.29 0.0
20 06:45 N 5 10.00 Fair CLR 69.8 69.8 100% 30.27 0.0
20 05:45 Calm 10.00 Fair CLR 68 68 100% 30.25 0.0
20 04:45 Calm 10.00 Fair CLR 68 68 100% 30.24 0.0
20 04:15 Calm 3.00 Fog/Mist OVC002 69.8 69.8 100% 30.24 0.0
20 03:55 NE 3 5.00 Fog/Mist OVC002 69.8 69.8 100% 30.24 0.0
20 03:35 N 5 5.00 Fog/Mist BKN002 69.8 69.8 100% 30.23 0.0
20 03:15 Calm 5.00 Fog/Mist CLR 71.6 71.6 100% 30.22 0.0
20 02:55 NW 3 6.00 Fog/Mist CLR 69.8 69.8 100% 30.22 0.0
20 02:40 Calm 4.00 Fog/Mist CLR 69.8 69.8 100% 30.22 0.0
20 00:55 Calm 8.00 Fair CLR 73.4 73.4 100% 30.22 0.0
20 00:35 Calm 8.00 Fair CLR 73.4 73.4 100% 30.22 0.0
20 00:15 Calm 6.00 Fog/Mist CLR 71.6 71.6 100% 30.22 0.0
19 23:55 Calm 6.00 Fog/Mist SCT075 73.4 73.4 100% 30.22 0.0
19 23:35 Calm 5.00 Fog/Mist BKN075 73.4 73.4 100% 30.22 0.0
19 23:15 Calm 5.00 Fog/Mist BKN070 75.2 75.2 100% 73 30.22 0.0
19 22:55 Calm 6.00 Fog/Mist BKN070 OVC075 75.2 75.2 100% 73 30.22 0.0
19 22:30 SE 3 7.00 Overcast BKN002 OVC070 75.2 75.2 100% 73 30.22 0.0
19 22:15 Calm 9.00 Overcast BKN002 OVC070 77 77 100% 78 30.22 0.0
19 21:45 E 3 10.00 Mostly Cloudy BKN070 77 77 100% 78 30.22 0.0
Date Time (cdt) Wind (mph) Vis. (mi.) Weather Sky Cond. Air Dwpt Max. Min. Relative Humidity Wind Chill (°F) Heat Index (°F) altimeter (in) sea level (mb) 1 hr 3 hr 6 hr
6 hour
Temperature (ºF) Pressure Precipitation (in)